User: anonymous   Login
Location: Unspecified
(0.0000°N, 0.0000°E)
Time: 18:57:12
(UTC+00:00)
Language:

SINAH 1 - Orbit

View from above orbital plane
View from above orbital plane
View from above satellite
View from above satellite

Ground track
Ground track

The orbit data is extracted from the following two-line orbital elements,

1 28893U 05043D   19340.65704308 +.00000004 +00000-0 +10035-4 0  9999
2 28893 097.9973 112.1542 0015102 187.0847 173.0143 14.61517448752011
Epoch (UTC): 06 December 2019 15:46:08
Eccentricity: 0.0015102
inclination: 97.9973°
perigee height: 677 km
apogee height: 699 km
right ascension of ascending node: 112.1542°
argument of perigee: 187.0847°
revolutions per day: 14.61517448
mean anomaly at epoch: 173.0143°
orbit number at epoch: 75201

The dashed part of the orbit path shows where the satellite is in the earth's shadow,  

DLR